| time (UTC) | temp F | wind direction | speed knots | gust knots | rain 1hr in | rain 24hr in | rain mn in | humidity % | barometer mb |
| 20260906234547 | 93 | 130 | 3.5 | 7.8 | 0.00 | 0.00 | 0.00 | 50 | 1009.0 |
| 20260906233045 | 94 | 161 | 1.7 | 5.2 | 0.00 | 0.00 | 0.00 | 48 | 1008.9 |
| 20260906231547 | 95 | 148 | 3.5 | 7.8 | 0.00 | 0.00 | 0.00 | 47 | 1008.9 |
| 20260906230045 | 96 | 144 | 3.5 | 7.8 | 0.00 | 0.00 | 0.00 | 46 | 1009.0 |
| 20260906224542 | 97 | 103 | 3.5 | 7.0 | 0.00 | 0.00 | 0.00 | 44 | 1009.1 |
| 20260906223041 | 98 | 292 | 0.9 | 4.3 | 0.00 | 0.00 | 0.00 | 41 | 1009.0 |
| 20260906221538 | 97 | 186 | 1.7 | 6.1 | 0.00 | 0.00 | 0.00 | 43 | 1009.2 |
| 20260906220036 | 97 | 217 | 1.7 | 5.2 | 0.00 | 0.00 | 0.00 | 41 | 1009.4 |
| 20260906214535 | 97 | 151 | 1.7 | 5.2 | 0.00 | 0.00 | 0.00 | 42 | 1009.4 |
| 20260906213031 | 96 | 296 | 0.9 | 5.2 | 0.00 | 0.00 | 0.00 | 45 | 1009.6 |
| 20260906211528 | 95 | 168 | 1.7 | 3.5 | 0.00 | 0.00 | 0.00 | 45 | 1009.8 |
| 20260906210028 | 95 | 109 | 0.9 | 5.2 | 0.00 | 0.00 | 0.00 | 46 | 1010.1 |
| 20260906204526 | 95 | 142 | 2.6 | 7.0 | 0.00 | 0.00 | 0.00 | 46 | 1010.2 |
| 20260906203026 | 94 | 123 | 0.0 | 3.5 | 0.00 | 0.00 | 0.00 | 47 | 1010.3 |
| 20260906201525 | 94 | 131 | 0.0 | 4.3 | 0.00 | 0.00 | 0.00 | 47 | 1010.4 |
| 20260906200025 | 95 | 66 | 2.6 | 6.1 | 0.00 | 0.00 | 0.00 | 47 | 1010.6 |
| 20260906194523 | 95 | 77 | 2.6 | 6.1 | 0.00 | 0.00 | 0.00 | 47 | 1010.7 |
| 20260906193023 | 95 | 111 | 0.9 | 5.2 | 0.00 | 0.00 | 0.00 | 48 | 1010.9 |
| 20260906191522 | 95 | 283 | 0.9 | 5.2 | 0.00 | 0.00 | 0.00 | 49 | 1011.1 |
| 20260906190021 | 96 | 77 | 0.9 | 7.8 | 0.00 | 0.00 | 0.00 | 45 | 1011.3 |
| 20260906184521 | 95 | 279 | 2.6 | 9.6 | 0.00 | 0.00 | 0.00 | 45 | 1011.5 |
| 20260906183015 | 94 | 107 | 0.9 | 7.8 | 0.00 | 0.00 | 0.00 | 48 | 1011.5 |
| 20260906181512 | 93 | 207 | 1.7 | 4.3 | 0.00 | 0.00 | 0.00 | 50 | 1011.7 |
| 20260906180011 | 93 | 173 | 2.6 | 7.0 | 0.00 | 0.00 | 0.00 | 55 | 1012.0 |
| 20260906174510 | 92 | 200 | 1.7 | 6.1 | 0.00 | 0.00 | 0.00 | 58 | 1012.3 |
| 20260906173005 | 92 | 134 | 0.9 | 7.0 | 0.00 | 0.00 | 0.00 | 60 | 1012.6 |
| 20260906171502 | 91 | 132 | 3.5 | 8.7 | 0.00 | 0.00 | 0.00 | 61 | 1012.9 |
| 20260906170106 | 90 | 176 | 1.7 | 7.0 | 0.00 | 0.00 | 0.00 | 64 | 1013.1 |
| 20260906164555 | 88 | 69 | 0.9 | 2.6 | 0.00 | 0.00 | 0.00 | 67 | 1013.2 |
| 20260906163051 | 87 | 161 | 1.7 | 3.5 | 0.00 | 0.00 | 0.00 | 69 | 1013.2 |
| 20260906161556 | 87 | 168 | 0.9 | 4.3 | 0.00 | 0.00 | 0.00 | 69 | 1013.2 |
| 20260906160050 | 87 | 115 | 2.6 | 5.2 | 0.00 | 0.00 | 0.00 | 69 | 1013.2 |
| 20260906154552 | 86 | 130 | 0.9 | 4.3 | 0.00 | 0.00 | 0.00 | 70 | 1013.0 |
| 20260906153051 | 85 | 120 | 0.9 | 6.1 | 0.00 | 0.00 | 0.00 | 71 | 1012.9 |
| 20260906151539 | 84 | 130 | 0.0 | 3.5 | 0.00 | 0.00 | 0.00 | 74 | 1012.7 |
| 20260906150052 | 83 | 104 | 0.0 | 1.7 | 0.00 | 0.00 | 0.00 | 75 | 1012.6 |
| 20260906144535 | 82 | 175 | 0.0 | 2.6 | 0.00 | 0.00 | 0.00 | 77 | 1012.6 |
| 20260906143034 | 81 | 128 | 0.9 | 2.6 | 0.00 | 0.00 | 0.00 | 80 | 1012.5 |
| 20260906141532 | 81 | 108 | 0.9 | 3.5 | 0.00 | 0.00 | 0.00 | 81 | 1012.5 |
| 20260906140036 | 80 | 123 | 0.0 | 0.0 | 0.00 | 0.00 | 0.00 | 83 | 1012.4 |
| 20260906134531 | 79 | 134 | 0.0 | 0.9 | 0.00 | 0.00 | 0.00 | 85 | 1012.3 |
| 20260906133029 | 78 | 169 | 0.0 | 0.0 | 0.00 | 0.00 | 0.00 | 86 | 1012.2 |
| 20260906131528 | 78 | 169 | 0.0 | 0.0 | 0.00 | 0.00 | 0.00 | 87 | 1011.9 |
| 20260906130038 | 77 | 169 | 0.0 | 0.0 | 0.00 | 0.00 | 0.00 | 88 | 1011.8 |
| 20260906124523 | 76 | 169 | 0.0 | 0.0 | 0.00 | 0.00 | 0.00 | 88 | 1011.5 |
| 20260906123034 | 76 | 169 | 0.0 | 0.0 | 0.00 | 0.00 | 0.00 | 87 | 1011.4 |
| 20260906121520 | 76 | 169 | 0.0 | 0.0 | 0.00 | 0.00 | 0.00 | 85 | 1011.1 |
| 20260906120018 | 76 | 169 | 0.0 | 0.0 | 0.00 | 0.00 | 0.00 | 85 | 1010.8 |
| 20260906114517 | 77 | 169 | 0.0 | 0.0 | 0.00 | 0.00 | 0.00 | 84 | 1010.4 |
| 20260906113015 | 77 | 169 | 0.0 | 0.0 | 0.00 | 0.00 | 0.00 | 84 | 1010.5 |
| 20260906111512 | 78 | 169 | 0.0 | 0.0 | 0.00 | 0.00 | 0.00 | 82 | 1010.4 |
| 20260906110010 | 78 | 169 | 0.0 | 0.0 | 0.00 | 0.00 | 0.00 | 81 | 1010.3 |
| 20260906104518 | 79 | 169 | 0.0 | 0.0 | 0.00 | 0.00 | 0.00 | 80 | 1010.3 |
| 20260906103020 | 79 | 169 | 0.0 | 0.0 | 0.00 | 0.00 | 0.00 | 80 | 1010.3 |
| 20260906101505 | 80 | 169 | 0.0 | 0.0 | 0.00 | 0.00 | 0.00 | 79 | 1010.1 |
| 20260906100009 | 80 | 169 | 0.0 | 0.0 | 0.00 | 0.00 | 0.00 | 78 | 1010.0 |
| 20260906094503 | 80 | 185 | 0.0 | 0.0 | 0.00 | 0.00 | 0.00 | 78 | 1010.0 |
| 20260906093100 | 80 | 182 | 0.0 | 0.0 | 0.00 | 0.00 | 0.00 | 77 | 1010.0 |
| 20260906091559 | 81 | 208 | 0.0 | 2.6 | 0.00 | 0.00 | 0.00 | 77 | 1009.9 |
| 20260906090058 | 81 | 192 | 0.0 | 2.6 | 0.00 | 0.00 | 0.00 | 77 | 1010.0 |
| 20260906084600 | 81 | 186 | 0.0 | 3.5 | 0.00 | 0.00 | 0.00 | 76 | 1010.0 |
| 20260906083055 | 82 | 231 | 0.0 | 4.3 | 0.00 | 0.00 | 0.00 | 76 | 1010.0 |
| 20260906081557 | 82 | 166 | 0.0 | 3.5 | 0.00 | 0.00 | 0.00 | 77 | 1010.0 |
| 20260906080056 | 82 | 139 | 0.9 | 4.3 | 0.00 | 0.00 | 0.00 | 76 | 1010.1 |
| 20260906074553 | 82 | 158 | 0.0 | 5.2 | 0.00 | 0.00 | 0.00 | 77 | 1010.2 |
| 20260906073148 | 82 | 155 | 0.9 | 4.3 | 0.00 | 0.00 | 0.00 | 77 | 1010.5 |
| 20260906071547 | 82 | 234 | 0.0 | 2.6 | 0.00 | 0.00 | 0.00 | 77 | 1010.5 |
| 20260906070045 | 82 | 166 | 0.9 | 4.3 | 0.00 | 0.00 | 0.00 | 76 | 1010.8 |
| 20260906064543 | 82 | 160 | 0.9 | 1.7 | 0.00 | 0.00 | 0.00 | 76 | 1010.9 |
| 20260906063046 | 82 | 156 | 0.0 | 3.5 | 0.00 | 0.00 | 0.00 | 75 | 1011.0 |
| 20260906061542 | 82 | 139 | 0.0 | 2.6 | 0.00 | 0.00 | 0.00 | 75 | 1010.8 |
| 20260906060040 | 82 | 142 | 0.9 | 2.6 | 0.00 | 0.00 | 0.00 | 75 | 1010.9 |
| 20260906054558 | 82 | 140 | 0.0 | 1.7 | 0.00 | 0.00 | 0.00 | 74 | 1011.1 |
| 20260906053037 | 82 | 129 | 0.0 | 4.3 | 0.00 | 0.00 | 0.00 | 73 | 1011.0 |
| 20260906051537 | 83 | 115 | 0.0 | 3.5 | 0.00 | 0.00 | 0.00 | 73 | 1011.1 |
| 20260906050039 | 83 | 144 | 0.9 | 4.3 | 0.00 | 0.00 | 0.00 | 73 | 1011.2 |
| 20260906044536 | 83 | 119 | 0.9 | 3.5 | 0.00 | 0.00 | 0.00 | 72 | 1011.4 |
| 20260906043033 | 83 | 121 | 1.7 | 7.0 | 0.00 | 0.00 | 0.00 | 71 | 1011.3 |
| 20260906041532 | 83 | 106 | 1.7 | 6.1 | 0.00 | 0.00 | 0.00 | 70 | 1011.2 |
| 20260906040044 | 84 | 110 | 0.9 | 4.3 | 0.00 | 0.00 | 0.00 | 68 | 1011.1 |
| 20260906034545 | 84 | 155 | 2.6 | 8.7 | 0.00 | 0.00 | 0.00 | 67 | 1011.1 |
| 20260906033031 | 85 | 95 | 3.5 | 7.0 | 0.00 | 0.00 | 0.00 | 66 | 1011.1 |
| 20260906031558 | 85 | 75 | 1.7 | 6.1 | 0.00 | 0.00 | 0.00 | 65 | 1011.0 |
| 20260906030029 | 86 | 101 | 1.7 | 5.2 | 0.00 | 0.00 | 0.00 | 62 | 1010.8 |
| 20260906024550 | 87 | 78 | 1.7 | 5.2 | 0.00 | 0.00 | 0.00 | 59 | 1010.5 |
| 20260906023027 | 87 | 116 | 1.7 | 7.8 | 0.00 | 0.00 | 0.00 | 57 | 1010.1 |
| 20260906021526 | 88 | 44 | 2.6 | 7.0 | 0.00 | 0.00 | 0.00 | 56 | 1009.8 |
| 20260906020028 | 88 | 148 | 5.2 | 12.2 | 0.00 | 0.00 | 0.00 | 55 | 1009.5 |
| 20260906014526 | 89 | 130 | 1.7 | 7.0 | 0.00 | 0.00 | 0.00 | 55 | 1009.2 |
| 20260906013024 | 90 | 86 | 3.5 | 8.7 | 0.00 | 0.00 | 0.00 | 53 | 1009.2 |
| 20260906011524 | 90 | 77 | 2.6 | 8.7 | 0.00 | 0.00 | 0.00 | 53 | 1008.9 |
| 20260906010040 | 91 | 103 | 2.6 | 7.0 | 0.00 | 0.00 | 0.00 | 52 | 1008.9 |
| 20260906004523 | 92 | 107 | 2.6 | 7.8 | 0.00 | 0.00 | 0.00 | 51 | 1008.9 |
| 20260906003022 | 93 | 115 | 3.5 | 8.7 | 0.00 | 0.00 | 0.00 | 50 | 1008.9 |
| 20260906001529 | 93 | 40 | 2.6 | 7.8 | 0.00 | 0.00 | 0.00 | 49 | 1008.8 |
| 20260906000022 | 94 | 140 | 2.6 | 8.7 | 0.00 | 0.00 | 0.00 | 47 | 1008.8 |